Wind_Speed
6 7 7 7 8 9 10 11 12 11 13 13 14 14 14 14 15 15 16 17 18 18 19 19 20 20 21 22 22 22 23 23 23 24 25 25 26 27 28 29 30 32 33 35
8 8 8 8 9 10 10 11 12 12 12 14 14 15 16 16 17 17 17 18 18 19 20 21 22 23 23 24 24 24 25 25 26 26 27 27 28 28 30 31 32 33 35 37
8 10 9 9 10 11 12 13 13 13 13 15 16 17 17 18 18 18 19 19 20 21 22 23 24 24 25 25 26 26 26 27 27 27 28 29 29 30 32 33 35 35 37 38
10 11 10 11 12 13 13 14 15 16 17 18 18 18 18 19 19 20 20 21 22 23 24 25 26 26 27 28 29 29 29 29 29 29 30 30 31 32 33 35 36 38 39 40
13 12 11 12 14 15 15 16 17 17 18 18 18 19 19 20 21 21 22 23 24 25 26 26 27 28 29 30 31 32 31 31 31 31 32 32 33 34 35 37 38 39 41 42
15 15 15 15 16 16 17 17 18 18 19 19 20 20 20 21 22 23 24 25 26 27 28 29 29 30 31 32 33 33 33 33 34 34 34 34 35 36 37 37 38 39 40 42
18 18 17 18 19 19 19 19 19 19 19 20 21 22 22 23 24 24 25 26 28 29 30 30 31 32 33 33 34 34 34 35 35 36 37 37 38 38 38 39 39 40 42 43
20 21 21 21 21 21 21 20 20 21 22 22 23 23 24 24 25 26 27 28 29 30 31 32 33 33 34 35 35 36 36 37 37 38 38 39 39 40 40 40 41 41 42 43
23 23 24 24 23 23 24 23 23 24 24 24 25 25 25 26 26 27 28 29 31 32 33 34 34 35 36 37 37 38 38 39 39 40 40 41 41 42 42 42 42 43 44 44
25 24 26 26 26 26 27 26 26 26 27 27 27 27 27 28 29 29 30 32 33 34 35 35 36 37 38 39 39 40 41 41 41 42 42 43 43 43 42 42 43 44 44 44
27 27 28 27 28 28 29 29 28 29 29 29 29 29 30 30 31 32 33 34 35 36 36 37 38 39 39 40 41 42 42 42 43 44 44 44 44 43 43 43 44 44 44 45
29 29 30 28 29 30 31 31 31 31 31 31 32 32 32 33 33 34 35 36 37 37 38 39 40 40 41 41 42 42 43 44 45 45 45 44 43 43 44 45 45 46 46 46
32 32 32 31 31 31 32 32 33 33 33 33 33 34 34 34 35 36 36 37 38 38 39 40 41 41 42 42 42 43 44 45 45 45 44 44 43 43 43 44 45 45 45 46
34 33 32 32 32 33 33 33 34 34 34 35 35 35 35 35 35 36 37 38 39 39 40 41 41 42 42 42 43 43 44 45 45 44 44 43 43 44 44 43 43 44 45 45
36 35 34 34 34 34 34 35 35 35 35 35 36 36 36 36 36 37 38 39 39 40 40 41 42 42 42 42 43 44 44 45 44 43 43 43 43 43 43 43 43 43 43 44
38 37 36 36 36 36 36 36 36 37 37 37 37 37 37 37 37 38 39 40 40 40 41 41 41 41 41 42 43 44 44 44 43 43 42 42 43 43 43 43 43 43 43 43
39 38 37 37 37 37 37 37 37 38 38 38 37 37 37 37 38 38 39 40 41 41 41 41 40 41 42 43 44 44 44 44 43 42 42 43 43 42 43 43 43 43 43 43
39 39 39 38 38 37 37 37 38 38 38 38 38 38 38 38 39 39 40 41 41 41 41 40 40 41 42 43 44 44 44 44 43 42 43 43 43 43 43 43 43 42 42 43
40 40 40 39 39 39 38 38 39 39 39 39 39 38 39 39 40 40 41 40 40 40 40 40 41 41 42 43 44 44 43 43 43 43 43 43 43 43 43 42 42 42 42 41
40 41 41 40 39 39 39 39 39 39 39 40 39 39 40 40 40 41 41 40 40 40 40 40 41 41 42 43 43 43 42 42 42 42 43 43 43 43 42 42 41 41 40 40
41 41 41 41 40 40 40 40 40 40 41 40 40 40 40 40 40 40 40 40 40 40 40 40 40 41 42 42 42 42 42 42 42 43 43 43 42 42 41 41 40 40 39 38
41 41 41 41 41 41 41 41 41 41 41 41 41 41 41 40 40 40 39 39 40 40 40 40 40 40 40 41 41 41 42 42 43 43 43 42 41 41 40 39 39 38 37 35
41 41 41 41 41 41 41 41 42 42 41 41 40 40 40 40 40 39 39 39 39 39 39 39 39 39 39 40 41 41 42 43 42 42 41 41 40 39 39 38 37 36 35 33
42 42 42 42 42 42 42 42 42 41 41 40 40 40 40 39 39 39 39 39 39 39 39 39 38 38 39 39 40 41 42 42 42 41 40 40 39 38 37 36 35 34 32 31
43 42 42 42 42 42 42 42 42 41 40 40 40 40 39 39 38 38 38 38 38 38 38 37 38 38 39 39 40 41 42 41 41 40 39 38 37 36 35 33 33 32 30 28
43 42 42 42 41 41 41 41 41 40 40 39 39 39 38 37 37 37 37 37 37 36 36 36 37 38 39 39 40 41 41 40 40 39 38 37 36 34 32 31 30 29 28 26
42 42 41 40 40 40 40 40 39 38 38 38 37 37 37 37 36 36 36 36 36 35 35 36 37 38 38 39 40 40 40 39 39 37 36 35 33 32 30 28 27 26 25 25
Wind_Direction
330 324 324 322 316 314 315 316 318 321 323 323 326 327 326 325 325 324 324 324 325 327 327 325 324 323 322 320 318 315 312 310 306 302 300 297 293 290 287 285 283 281 279 278
329 323 320 315 310 309 313 316 318 319 321 318 322 323 323 323 323 324 324 326 326 326 326 325 324 323 322 322 319 317 314 311 307 303 300 298 295 291 290 288 286 284 282 281
332 325 325 321 314 312 315 316 318 320 318 316 317 317 318 319 321 321 321 322 323 323 323 323 323 321 321 321 319 318 316 313 310 306 302 300 298 295 292 291 290 289 287 285
327 322 324 324 318 315 314 315 314 315 314 313 312 313 315 316 317 317 317 317 317 318 318 318 318 319 320 320 319 317 315 312 310 308 305 303 301 298 296 294 293 291 289 288
317 317 321 318 316 314 313 312 310 311 311 312 313 313 313 312 313 314 314 314 316 317 318 317 317 317 317 318 318 317 315 313 311 309 307 305 304 302 300 297 295 292 291 289
311 312 316 314 312 311 310 310 309 311 311 312 313 313 313 312 312 312 312 313 314 315 315 315 315 315 315 315 316 316 315 313 312 310 308 307 306 304 303 301 300 298 296 294
305 306 309 308 308 307 308 308 308 309 310 311 311 312 313 313 313 313 314 315 314 314 314 314 314 314 314 314 314 315 314 313 312 311 309 308 307 306 305 303 302 301 299 298
299 302 303 301 302 302 303 304 305 306 308 309 309 309 311 312 313 313 314 314 315 315 314 314 314 314 314 313 313 313 313 313 313 312 311 309 308 307 305 304 303 302 301 300
298 298 297 297 298 299 299 300 301 302 303 305 305 306 307 309 311 312 312 313 313 314 314 314 314 313 313 312 312 312 312 312 312 312 311 310 309 307 306 304 304 303 303 302
297 296 294 295 296 296 297 299 299 299 300 301 301 302 303 305 307 308 310 311 311 312 312 313 312 312 312 311 311 311 311 311 312 312 311 311 309 308 307 306 306 305 305 304
293 293 293 295 295 294 294 296 296 297 297 298 298 299 301 303 305 307 308 310 310 311 311 312 312 312 311 311 311 311 311 311 311 312 311 311 310 309 308 308 308 308 307 307
289 290 292 294 293 292 292 292 293 294 295 296 297 297 299 301 303 305 307 308 309 310 310 311 311 311 310 310 311 311 311 311 312 312 311 310 310 309 309 310 310 310 309 309
287 288 290 290 290 291 291 291 292 293 294 295 296 298 299 300 302 304 305 307 308 309 309 310 311 310 310 310 311 311 311 312 312 312 311 311 310 310 310 310 311 311 311 311
285 286 287 288 289 290 291 292 292 293 294 295 296 297 299 300 301 303 305 307 308 308 309 310 310 310 310 311 311 312 312 313 313 312 312 312 312 312 312 312 312 312 313 313
283 284 285 286 288 290 291 291 292 292 293 295 296 297 298 299 301 302 304 306 307 308 309 310 310 310 311 312 313 313 314 314 314 313 313 313 313 314 314 314 314 314 315 315
281 282 284 285 287 289 290 290 291 292 293 294 295 296 298 298 300 302 304 306 307 308 309 310 310 310 311 312 313 314 314 315 315 314 314 314 314 314 315 316 315 315 316 316
279 281 283 285 287 288 289 290 291 292 293 293 294 296 297 298 299 301 303 305 307 308 309 310 310 310 311 312 313 314 315 315 315 315 315 316 315 315 316 316 316 316 316 317
279 280 282 284 285 286 287 288 289 291 292 293 294 295 296 297 299 301 303 305 307 308 309 309 309 310 311 312 314 314 315 316 316 316 316 316 316 316 317 317 317 317 317 318
278 280 281 282 283 284 285 287 288 290 291 292 293 294 295 297 298 300 302 304 306 307 308 308 309 310 311 313 314 315 315 316 316 316 317 317 317 317 317 318 319 319 318 319
277 278 279 280 281 283 284 286 287 288 290 291 292 293 294 296 298 299 301 303 305 306 307 308 309 311 312 312 313 314 315 316 316 317 317 317 317 318 318 319 320 320 320 320
277 278 278 278 280 282 283 285 286 287 288 290 291 293 294 295 297 298 301 302 304 306 306 308 309 311 312 313 313 314 315 316 316 317 317 317 318 318 319 319 320 321 321 322
277 277 278 278 279 281 282 283 285 286 287 289 290 292 293 294 295 298 300 302 303 305 306 307 309 311 312 313 314 314 315 316 317 317 318 318 318 319 319 320 321 322 322 323
277 277 277 278 279 280 282 283 285 286 287 289 290 291 292 294 295 297 299 301 303 304 306 307 308 310 312 313 314 315 315 316 317 318 318 319 319 319 320 321 322 322 323 324
277 277 277 278 279 280 282 283 285 286 287 288 289 291 292 294 295 297 298 299 301 303 305 306 308 309 311 313 314 315 316 317 318 318 318 319 319 320 320 321 322 323 323 324
277 278 278 279 280 282 282 283 284 285 286 288 289 291 292 293 295 296 297 298 300 302 304 306 307 309 312 313 314 315 316 317 318 318 319 319 320 320 320 320 322 324 325 326
278 278 278 279 280 282 282 283 284 286 287 289 289 291 292 293 294 295 296 298 300 301 303 306 308 309 311 313 314 315 316 317 318 319 319 319 320 320 320 320 322 324 325 327
278 279 280 280 281 281 283 284 285 286 287 289 289 290 292 293 293 294 296 298 299 301 303 306 308 310 312 313 314 316 317 317 317 319 320 320 320 320 319 320 322 324 325 326
Height
5684 5683 5682 5681 5679 5678 5676 5675 5674 5673 5670 5668 5665 5663 5661 5659 5657 5654 5652 5649 5646 5643 5639 5636 5633 5630 5627 5624 5620 5617 5614 5611 5608 5605 5603 5601 5599 5597 5595 5593 5592 5591 5589 5588
5684 5682 5681 5680 5678 5676 5675 5673 5671 5670 5668 5666 5663 5661 5659 5657 5654 5651 5649 5646 5643 5639 5636 5633 5630 5626 5623 5619 5615 5612 5608 5605 5602 5599 5596 5594 5591 5589 5587 5585 5583 5581 5579 5578
5684 5681 5680 5679 5677 5675 5673 5671 5669 5667 5667 5663 5661 5659 5656 5654 5651 5648 5645 5642 5639 5636 5633 5629 5626 5622 5618 5614 5610 5606 5603 5599 5596 5592 5589 5586 5583 5580 5578 5575 5573 5570 5568 5566
5682 5681 5679 5680 5675 5673 5671 5669 5667 5665 5663 5660 5658 5655 5653 5650 5648 5645 5642 5639 5636 5632 5629 5625 5621 5617 5613 5609 5605 5601 5597 5593 5589 5585 5581 5578 5575 5571 5569 5566 5562 5560 5557 5554
5679 5678 5677 5677 5673 5670 5668 5667 5664 5662 5659 5657 5654 5652 5650 5646 5643 5641 5638 5634 5631 5628 5624 5620 5616 5612 5608 5603 5599 5594 5590 5586 5582 5578 5574 5570 5566 5562 5558 5555 5551 5547 5544 5540
5677 5674 5674 5674 5670 5667 5666 5664 5661 5658 5656 5653 5650 5648 5646 5642 5639 5636 5633 5629 5626 5622 5618 5614 5610 5606 5601 5597 5592 5587 5583 5578 5574 5570 5565 5561 5557 5552 5548 5543 5539 5535 5531 5527
5673 5670 5670 5669 5666 5663 5662 5661 5657 5654 5651 5649 5646 5644 5641 5638 5634 5631 5628 5624 5620 5616 5612 5608 5604 5599 5594 5590 5585 5580 5575 5570 5566 5561 5556 5551 5547 5542 5537 5532 5528 5523 5519 5514
5669 5667 5668 5664 5661 5659 5657 5654 5652 5649 5647 5644 5641 5638 5635 5632 5629 5626 5622 5618 5614 5610 5605 5601 5596 5592 5587 5582 5577 5572 5567 5562 5557 5552 5547 5541 5536 5531 5526 5521 5516 5511 5506 5501
5666 5665 5661 5658 5655 5653 5651 5649 5646 5643 5641 5638 5635 5632 5629 5626 5623 5619 5616 5612 5607 5603 5598 5593 5589 5584 5579 5574 5569 5564 5558 5553 5548 5542 5537 5531 5525 5520 5514 5509 5504 5499 5494 5488
5658 5658 5654 5651 5649 5647 5645 5642 5640 5637 5635 5632 5629 5626 5623 5620 5616 5613 5609 5604 5600 5595 5591 5586 5581 5576 5570 5565 5560 5554 5549 5544 5538 5532 5526 5520 5514 5508 5503 5497 5492 5486 5481 5475
5651 5650 5647 5645 5642 5640 5637 5635 5633 5630 5627 5624 5621 5618 5615 5612 5608 5605 5601 5596 5592 5587 5582 5577 5572 5567 5561 5556 5550 5545 5539 5534 5528 5522 5515 5509 5503 5496 5491 5485 5479 5473 5468 5462
5643 5641 5639 5638 5635 5632 5629 5627 5625 5622 5619 5616 5613 5610 5607 5604 5600 5596 5592 5588 5583 5578 5573 5568 5563 5557 5552 5546 5541 5535 5529 5523 5517 5511 5505 5498 5492 5486 5478 5473 5466 5460 5454 5448
5634 5632 5630 5629 5626 5624 5621 5619 5616 5614 5611 5608 5605 5601 5598 5595 5591 5587 5583 5579 5574 5569 5564 5559 5553 5548 5542 5536 5531 5525 5519 5513 5506 5500 5494 5487 5481 5475 5469 5462 5454 5448 5442 5435
5624 5623 5621 5619 5617 5615 5612 5610 5607 5605 5602 5599 5596 5592 5589 5586 5582 5578 5574 5569 5565 5560 5554 5549 5543 5537 5532 5526 5520 5514 5508 5502 5495 5489 5483 5477 5470 5464 5458 5452 5446 5438 5431 5424
5614 5612 5611 5609 5608 5605 5603 5601 5598 5596 5592 5589 5586 5583 5580 5576 5573 5569 5564 5560 5555 5550 5544 5539 5533 5527 5522 5516 5510 5504 5498 5491 5485 5478 5472 5466 5460 5454 5447 5441 5434 5428 5421 5414
5604 5602 5600 5599 5598 5595 5593 5591 5589 5586 5583 5580 5576 5573 5570 5567 5563 5559 5554 5550 5545 5539 5534 5528 5523 5517 5512 5506 5500 5494 5487 5481 5475 5468 5462 5456 5450 5443 5437 5430 5424 5417 5410 5403
5592 5591 5590 5589 5587 5585 5583 5581 5578 5575 5572 5569 5566 5563 5560 5556 5552 5548 5544 5539 5534 5529 5524 5518 5513 5507 5502 5496 5490 5484 5478 5471 5465 5459 5453 5446 5440 5433 5427 5420 5413 5406 5399 5392
5581 5580 5579 5578 5576 5574 5572 5570 5567 5565 5562 5559 5556 5553 5549 5546 5542 5538 5533 5529 5524 5519 5514 5508 5503 5498 5492 5487 5481 5474 5468 5462 5455 5449 5443 5437 5430 5424 5417 5410 5403 5396 5389 5382
5569 5569 5567 5566 5564 5563 5561 5559 5556 5554 5551 5548 5545 5542 5539 5535 5531 5527 5523 5519 5513 5509 5503 5498 5493 5488 5483 5477 5471 5465 5459 5452 5446 5440 5433 5427 5420 5414 5407 5400 5393 5386 5379 5372
5557 5556 5555 5554 5552 5551 5549 5547 5545 5543 5540 5537 5534 5531 5527 5524 5520 5516 5512 5508 5503 5498 5493 5488 5483 5478 5473 5467 5461 5455 5449 5443 5437 5430 5424 5418 5411 5404 5397 5391 5384 5377 5370 5363
5545 5544 5543 5542 5540 5539 5537 5535 5533 5531 5528 5525 5522 5519 5516 5513 5509 5505 5501 5497 5493 5488 5483 5478 5473 5468 5463 5457 5452 5446 5440 5434 5428 5421 5415 5408 5401 5395 5388 5381 5375 5368 5361 5354
5532 5531 5530 5529 5528 5527 5525 5523 5521 5519 5516 5513 5510 5507 5504 5501 5497 5494 5490 5486 5482 5477 5473 5468 5463 5458 5453 5448 5442 5437 5431 5425 5418 5412 5405 5399 5392 5386 5379 5373 5366 5360 5353 5347
5519 5518 5517 5516 5515 5514 5513 5511 5508 5506 5504 5501 5498 5495 5492 5489 5486 5483 5479 5475 5471 5467 5462 5458 5453 5449 5444 5438 5433 5427 5421 5415 5409 5402 5396 5390 5383 5377 5371 5364 5358 5352 5346 5340
5506 5505 5504 5504 5502 5501 5500 5498 5496 5494 5491 5489 5486 5483 5480 5477 5475 5471 5468 5464 5461 5457 5452 5448 5443 5439 5434 5429 5424 5418 5412 5406 5399 5393 5387 5381 5375 5368 5362 5356 5351 5344 5339 5333
5493 5492 5492 5491 5490 5488 5487 5485 5483 5481 5479 5477 5474 5471 5468 5466 5463 5460 5457 5454 5450 5446 5442 5438 5434 5429 5424 5419 5414 5408 5402 5396 5390 5384 5378 5372 5366 5360 5354 5349 5343 5338 5332 5327
5480 5479 5478 5477 5476 5475 5474 5472 5471 5469 5466 5464 5462 5460 5457 5455 5452 5449 5446 5443 5440 5436 5432 5428 5424 5420 5415 5410 5405 5399 5393 5387 5381 5375 5369 5364 5358 5352 5347 5342 5337 5332 5327 5322
5466 5466 5465 5465 5464 5462 5461 5460 5458 5456 5454 5452 5451 5449 5446 5444 5441 5438 5436 5433 5430 5426 5423 5419 5415 5410 5405 5400 5395 5390 5384 5378 5372 5367 5361 5355 5350 5345 5340 5335 5331 5327 5322 5318